FW2918 Weather Reports


time (UTC)temp
C
wind
direction
speed
KPH
gust
KPH
rain 1hr
cm
rain 24hr
cm
rain mn
cm
humidity
%
barometer
mb
20260506173536 6 96 0.0 3.2 0.18 0.33 0.33 92 1011.5
20260506173039 6 96 0.0 4.8 0.15 0.30 0.30 92 1011.3
20260506172537 6 97 0.0 4.8 0.18 0.28 0.30 92 1011.3
20260506172035 6 95 0.0 4.8 0.15 0.25 0.25 92 1011.3
20260506171535 6 355 0.0 3.2 0.20 0.25 0.25 91 1011.3
20260506171033 6 355 0.0 3.2 0.20 0.23 0.23 91 1011.4
20260506170531 6 85 0.0 1.6 0.20 0.23 0.23 90 1011.4
20260506170031 6 85 0.0 4.8 0.18 0.23 0.23 90 1011.4
20260506165531 6 85 1.6 6.4 0.20 0.23 0.23 89 1011.5
20260506165033 6 85 1.6 6.4 0.18 0.20 0.20 88 1011.6
20260506164531 6 73 3.2 12.9 0.18 0.18 0.18 88 1011.6
20260506164031 6 69 4.8 12.9 0.15 0.15 0.18 86 1011.7
20260506163530 7 51 4.8 11.3 0.15 0.15 0.15 85 1011.8
20260506163257 7 56 6.4 14.5 0.13 0.13 0.15 84 1011.9
20260506162529 7 86 4.8 14.5 0.10 0.10 0.10 83 1011.9
20260506162307 7 88 4.8 12.9 0.08 0.08 0.10 81 1012.1
20260506161525 8 84 4.8 14.5 0.05 0.05 0.05 79 1012.1
20260506161038 8 123 4.8 14.5 0.05 0.05 0.05 78 1012.0
20260506160525 8 93 1.6 11.3 0.05 0.05 0.05 77 1012.0
20260506160039 8 65 1.6 9.7 0.05 0.05 0.05 77 1011.8
20260506155525 8 65 1.6 14.5 0.03 0.03 0.05 74 1011.9
20260506155025 8 78 4.8 14.5 0.03 0.03 0.03 73 1011.7
20260506155011 9 61 4.8 17.7 0.00 0.00 0.03 71 1011.5
20260506154021 9 57 3.2 17.7 0.00 0.00 0.00 69 1011.1
20260506153745 9 98 3.2 12.9 0.00 0.00 0.00 68 1011.1
20260506153020 10 88 4.8 12.9 0.00 0.00 0.00 66 1011.2
20260506152521 10 76 6.4 14.5 0.00 0.00 0.00 61 1011.4
20260506152022 10 81 8.0 20.9 0.00 0.00 0.00 63 1011.4
20260506151521 10 49 6.4 20.9 0.00 0.00 0.00 59 1011.3
20260506151021 10 94 8.0 27.4 0.00 0.00 0.00 60 1011.3
20260506150521 11 186 8.0 27.4 0.00 0.00 0.00 54 1011.2
20260506150021 11 59 4.8 20.9 0.00 0.00 0.00 51 1011.0
20260506145518 12 131 1.6 6.4 0.00 0.00 0.00 49 1010.9
20260506145014 12 92 1.6 8.0 0.00 0.00 0.00 46 1010.6
20260506144515 12 96 1.6 8.0 0.00 0.00 0.00 47 1010.5
20260506144016 12 77 1.6 12.9 0.00 0.00 0.00 46 1010.3
20260506143514 12 88 3.2 12.9 0.00 0.00 0.00 45 1010.2
20260506143239 12 89 3.2 9.7 0.00 0.00 0.00 45 1010.4
20260506142740 12 90 3.2 9.7 0.00 0.00 0.00 45 1010.4
20260506142016 12 74 3.2 8.0 0.00 0.00 0.00 46 1010.6
20260506141514 12 74 3.2 12.9 0.00 0.00 0.00 44 1010.7
20260506141015 12 79 1.6 12.9 0.00 0.00 0.00 44 1010.8
20260506140510 12 78 3.2 12.9 0.00 0.00 0.00 46 1010.7
20260506140010 12 73 3.2 14.5 0.00 0.00 0.00 43 1010.6
20260506135509 12 93 3.2 14.5 0.00 0.00 0.00 46 1010.8
20260506135009 12 76 3.2 11.3 0.00 0.00 0.00 43 1010.9
20260506134510 12 84 3.2 11.3 0.00 0.00 0.00 43 1010.9
20260506134006 12 98 3.2 11.3 0.00 0.00 0.00 44 1011.1
20260506133507 12 67 1.6 11.3 0.00 0.00 0.00 44 1011.1
20260506133006 12 78 1.6 11.3 0.00 0.00 0.00 43 1011.2
20260506132818 12 36 1.6 9.7 0.00 0.00 0.00 44 1011.0
20260506132711 12 61 3.2 9.7 0.00 0.00 0.00 41 1011.2
20260506131506 12 68 3.2 12.9 0.00 0.00 0.00 43 1011.0
20260506131017 13 88 4.8 12.9 0.00 0.00 0.00 44 1011.3
20260506130503 13 74 3.2 8.0 0.00 0.00 0.00 44 1011.6
20260506130003 13 92 3.2 9.7 0.00 0.00 0.00 44 1011.6
20260506125505 13 19 3.2 9.7 0.00 0.00 0.00 44 1011.8
20260506125002 13 49 1.6 8.0 0.00 0.00 0.00 43 1011.9
20260506124503 13 42 3.2 11.3 0.00 0.00 0.00 42 1011.9
20260506124002 13 52 4.8 16.1 0.00 0.00 0.00 44 1012.0
20260506123504 13 82 4.8 16.1 0.00 0.00 0.00 45 1012.2
20260506123002 13 42 3.2 12.9 0.00 0.00 0.00 46 1012.3
20260506122502 13 330 4.8 12.9 0.00 0.00 0.00 41 1012.4
20260506122004 13 340 3.2 12.9 0.00 0.00 0.00 40 1012.2
20260506121504 14 55 3.2 11.3 0.00 0.00 0.00 43 1012.3
20260506121002 14 59 3.2 12.9 0.00 0.00 0.00 45 1012.3
20260506120456 13 336 3.2 12.9 0.00 0.00 0.00 44 1012.4
20260506115956 14 111 4.8 16.1 0.00 0.00 0.00 42 1012.3
20260506115458 13 351 4.8 17.7 0.00 0.00 0.00 42 1012.3
20260506115217 13 61 4.8 17.7 0.00 0.00 0.00 44 1012.3
20260506114458 14 22 4.8 9.7 0.00 0.00 0.00 50 1012.2
20260506113954 14 80 4.8 16.1 0.00 0.00 0.00 47 1012.3
20260506113944 14 5 4.8 16.1 0.00 0.00 0.00 46 1012.1
20260506112952 13 58 3.2 12.9 0.00 0.00 0.00 43 1012.0
20260506112451 14 95 4.8 14.5 0.00 0.00 0.00 44 1012.2
20260506111949 13 65 4.8 16.1 0.00 0.00 0.00 41 1012.1
20260506111449 14 348 4.8 16.1 0.00 0.00 0.00 48 1012.0
20260506111210 13 69 4.8 12.9 0.00 0.00 0.00 47 1012.1
20260506110448 13 59 8.0 14.5 0.00 0.00 0.00 47 1012.1
20260506110441 13 86 8.0 20.9 0.00 0.00 0.00 45 1011.9
20260506105449 13 51 6.4 20.9 0.00 0.00 0.00 44 1012.0
20260506104948 13 57 6.4 16.1 0.00 0.00 0.00 43 1011.9
20260506104449 13 146 4.8 16.1 0.00 0.00 0.00 46 1012.1
20260506103948 13 54 3.2 14.5 0.00 0.00 0.00 51 1012.0
20260506103448 12 327 4.8 17.7 0.00 0.00 0.00 44 1012.1
20260506102950 13 102 8.0 17.7 0.00 0.00 0.00 46 1012.2
20260506102448 13 27 11.3 20.9 0.00 0.00 0.00 46 1012.0
20260506102211 13 331 8.0 20.9 0.00 0.00 0.00 47 1012.2
20260506101450 13 322 4.8 16.1 0.00 0.00 0.00 43 1012.3
20260506100947 13 55 11.3 22.5 0.00 0.00 0.00 44 1012.4
20260506100442 13 15 9.7 22.5 0.00 0.00 0.00 48 1012.4
20260506095942 13 333 6.4 16.1 0.00 0.00 0.00 48 1012.4
20260506095439 12 304 6.4 19.3 0.00 0.00 0.00 43 1012.4
20260506095419 12 77 8.0 19.3 0.00 0.00 0.00 43 1012.5
20260506094437 12 279 8.0 24.1 0.00 0.00 0.00 44 1012.5
20260506093936 12 82 8.0 24.1 0.00 0.00 0.00 44 1012.6
20260506093436 12 337 6.4 19.3 0.00 0.00 0.00 45 1012.6
20260506092936 12 19 6.4 19.3 0.00 0.00 0.00 46 1012.8
20260506092437 12 324 4.8 17.7 0.00 0.00 0.00 46 1012.8
20260506091932 12 330 4.8 17.7 0.00 0.00 0.00 44 1012.8
20260506091432 12 57 4.8 17.7 0.00 0.00 0.00 44 1013.0
20260506090931 12 23 8.0 19.3 0.00 0.00 0.00 48 1013.0
20260506090653 12 9 6.4 19.3 0.00 0.00 0.00 46 1013.0
20260506085931 11 342 4.8 16.1 0.00 0.00 0.00 48 1013.2
20260506085653 11 89 4.8 16.1 0.00 0.00 0.00 50 1013.0
20260506084931 11 321 4.8 14.5 0.00 0.00 0.00 47 1013.1
20260506084432 11 324 4.8 14.5 0.00 0.00 0.00 49 1013.0
20260506083930 11 323 4.8 16.1 0.00 0.00 0.00 49 1013.1
20260506083430 11 355 4.8 17.7 0.00 0.00 0.00 46 1013.2
20260506082942 11 57 3.2 17.7 0.00 0.00 0.00 48 1013.1
20260506082431 11 78 3.2 11.3 0.00 0.00 0.00 47 1013.1
20260506081929 11 81 4.8 12.9 0.00 0.00 0.00 45 1013.2
20260506081430 11 80 3.2 12.9 0.00 0.00 0.00 45 1013.2
20260506080930 11 80 4.8 14.5 0.00 0.00 0.00 52 1013.2
20260506080425 11 325 4.8 14.5 0.00 0.00 0.00 51 1013.4
20260506073417 10 19 4.8 16.1 0.00 0.00 0.00 54 1013.1
20260506072918 10 350 4.8 16.1 0.00 0.00 0.00 58 1013.2
20260506072859 10 326 3.2 8.0 0.00 0.00 0.00 56 1013.2
20260506071919 10 84 4.8 12.9 0.00 0.00 0.00 54 1013.2
20260506071644 9 350 4.8 12.9 0.00 0.00 0.00 56 1013.1
20260506070918 10 66 3.2 9.7 0.00 0.00 0.00 57 1013.2
20260506070419 10 72 3.2 9.7 0.00 0.00 0.00 54 1013.1
20260506062351 8 329 3.2 14.5 0.00 0.00 0.00 63 1013.0
20260506062332 8 327 3.2 6.4 0.00 0.00 0.00 63 1012.9
20260506061611 8 78 3.2 11.3 0.00 0.00 0.00 61 1012.9
20260506060904 8 67 3.2 11.3 0.00 0.00 0.00 64 1013.0
20260506060353 8 5 3.2 9.7 0.00 0.00 0.00 64 1013.1
20260506051341 7 96 1.6 6.4 0.00 0.00 0.00 73 1012.9
20260506050843 7 80 1.6 4.8 0.00 0.00 0.00 75 1012.8
20260506050340 6 75 0.0 4.8 0.00 0.00 0.00 77 1012.8
20260506044840 6 312 0.0 1.6 0.00 0.00 0.00 83 1012.6
20260506044337 5 313 0.0 1.6 0.00 0.00 0.00 86 1012.6
20260506043838 5 313 0.0 1.6 0.00 0.00 0.00 89 1012.7
20260506043337 4 312 0.0 3.2 0.00 0.00 0.00 91 1012.7
20260506042839 4 312 0.0 3.2 0.00 0.00 0.00 92 1012.7
20260506042337 3 313 0.0 3.2 0.00 0.00 0.00 93 1012.7
20260506041835 3 313 0.0 3.2 0.00 0.00 0.00 94 1012.6
20260506041334 3 312 0.0 3.2 0.00 0.00 0.00 95 1012.5
20260506040837 2 313 0.0 1.6 0.00 0.00 0.00 95 1012.6
20260506040333 2 313 0.0 1.6 0.00 0.00 0.00 96 1012.5
20260506035832 1 312 0.0 0.0 0.00 0.00 0.00 95 1012.6
20260506035333 1 312 0.0 0.0 0.00 0.00 0.00 95 1012.7
20260506035049 1 312 0.0 0.0 0.00 0.00 0.00 95 1012.5
20260506034554 1 312 0.0 0.0 0.00 0.00 0.00 95 1012.4
20260506034051 0 312 0.0 0.0 0.00 0.00 0.00 94 1012.4
20260506033321 1 312 0.0 0.0 0.00 0.00 0.00 95 1012.2
20260506032815 0 312 0.0 0.0 0.00 0.00 0.00 95 1012.1
20260506032310 0 312 0.0 0.0 0.00 0.00 0.00 95 1012.1
20260506031807 0 313 0.0 0.0 0.00 0.00 0.00 95 1012.1
20260506031308 0 313 0.0 0.0 0.00 0.00 0.00 94 1012.0
20260506030820 0 312 0.0 0.0 0.00 0.00 0.00 94 1012.0
20260506030309 0 313 0.0 0.0 0.00 0.00 0.00 94 1011.9
20260506025808 0 313 0.0 0.0 0.00 0.00 0.00 94 1012.0
20260506025532 0 312 0.0 0.0 0.00 0.00 0.00 94 1011.8
20260506024806 0 312 0.0 0.0 0.00 0.00 0.00 93 1011.8
20260506024303 0 312 0.0 0.0 0.00 0.00 0.00 93 1011.8
20260506023802 0 313 0.0 0.0 0.00 0.00 0.00 94 1011.6
20260506023259 0 312 0.0 0.0 0.00 0.00 0.00 94 1011.8
20260506023021 0 313 0.0 0.0 0.00 0.00 0.00 93 1011.7
20260506022519 0 313 0.0 0.0 0.00 0.00 0.00 93 1011.6
20260506021755 0 312 0.0 0.0 0.00 0.00 0.00 93 1011.6
20260506021739 0 313 0.0 0.0 0.00 0.00 0.00 93 1011.4
20260506020753 0 312 0.0 0.0 0.00 0.00 0.00 93 1011.5
20260506020253 0 313 0.0 1.6 0.00 0.00 0.00 93 1011.4
20260506015751 0 313 0.0 1.6 0.00 0.00 0.00 93 1011.4
20260506015511 0 313 0.0 0.0 0.00 0.00 0.00 92 1011.3
20260506014748 1 312 0.0 0.0 0.00 0.00 0.00 92 1011.4
20260506014249 0 312 0.0 0.0 0.00 0.00 0.00 92 1011.2
20260506013751 1 312 0.0 0.0 0.00 0.00 0.00 92 1011.4
20260506013249 0 312 0.0 0.0 0.00 0.00 0.00 92 1011.3
20260506012749 0 313 0.0 0.0 0.00 0.00 0.00 91 1011.5
20260506012248 1 313 0.0 0.0 0.00 0.00 0.00 91 1011.3
20260506012012 1 312 0.0 0.0 0.00 0.00 0.00 91 1011.4
20260506011247 1 313 0.0 0.0 0.00 0.00 0.00 90 1011.1
20260506011010 1 312 0.0 0.0 0.00 0.00 0.00 90 1011.1
20260506010512 1 313 0.0 0.0 0.00 0.00 0.00 90 1011.0
20260506005747 1 312 0.0 0.0 0.00 0.00 0.00 90 1011.0
20260506005249 1 312 0.0 0.0 0.00 0.00 0.00 90 1010.9
20260506004747 1 312 0.0 0.0 0.00 0.00 0.00 90 1010.9
20260506004513 0 313 0.0 0.0 0.00 0.00 0.00 89 1010.9
20260506003749 1 313 0.0 0.0 0.00 0.00 0.00 87 1010.8
20260506003246 2 312 0.0 0.0 0.00 0.00 0.00 87 1010.7
20260506002744 2 313 0.0 0.0 0.00 0.00 0.00 88 1010.6
20260506002242 2 312 0.0 0.0 0.00 0.00 0.00 89 1010.6
20260506002230 2 312 0.0 0.0 0.00 0.00 0.00 87 1010.7
20260506001241 2 312 0.0 0.0 0.00 0.00 0.00 87 1010.7
20260506000739 2 313 0.0 0.0 0.00 0.00 0.00 85 1010.7
20260506000240 2 313 0.0 0.0 0.00 0.00 0.00 85 1010.5
20260505235740 3 312 0.0 0.0 0.00 0.00 0.00 84 1010.5
20260505235232 3 312 0.0 0.0 0.00 0.00 0.00 84 1010.4
20260505234733 3 312 0.0 0.0 0.00 0.00 0.00 84 1010.6
20260505234230 3 313 0.0 0.0 0.00 0.00 0.00 83 1010.4
20260505233731 3 313 1.6 3.2 0.00 0.00 0.00 82 1010.5
20260505233226 3 313 1.6 3.2 0.00 0.00 0.00 82 1010.4
20260505232727 3 313 1.6 3.2 0.00 0.00 0.00 82 1010.5
20260505232228 3 312 1.6 4.8 0.00 0.00 0.00 80 1010.4
20260505231728 3 312 1.6 4.8 0.00 0.00 0.00 81 1010.4
20260505231227 3 312 3.2 4.8 0.00 0.00 0.00 80 1010.4
20260505230727 3 312 3.2 4.8 0.00 0.00 0.00 80 1010.4
20260505230236 3 312 3.2 4.8 0.00 0.00 0.00 79 1010.5
20260505225723 4 312 4.8 6.4 0.00 0.00 0.00 79 1010.5
20260505225224 4 312 4.8 6.4 0.00 0.00 0.00 78 1010.5
20260505224723 4 312 3.2 6.4 0.00 0.00 0.00 78 1010.4
20260505224223 4 311 3.2 4.8 0.00 0.00 0.00 77 1010.3
20260505223722 4 311 3.2 4.8 0.00 0.00 0.00 77 1010.5
20260505223222 4 311 3.2 4.8 0.00 0.00 0.00 76 1010.4
20260505222720 4 311 3.2 6.4 0.00 0.00 0.00 76 1010.4
20260505222221 4 313 3.2 6.4 0.00 0.00 0.00 76 1010.2
20260505221720 5 310 4.8 12.9 0.00 0.00 0.00 76 1010.3
20260505221221 5 321 6.4 12.9 0.00 0.00 0.00 76 1010.2
20260505220718 5 325 4.8 11.3 0.00 0.00 0.00 76 1010.3
20260505220219 5 319 6.4 11.3 0.00 0.00 0.00 76 1010.3
20260505215721 5 296 4.8 8.0 0.00 0.00 0.00 76 1010.2
20260505215220 5 289 4.8 8.0 0.00 0.00 0.00 76 1010.3
20260505214719 5 302 4.8 8.0 0.00 0.00 0.00 76 1010.4
20260505214220 5 298 4.8 8.0 0.00 0.00 0.00 76 1010.3
20260505213732 5 300 3.2 8.0 0.00 0.00 0.00 75 1010.4
20260505213218 5 300 3.2 6.4 0.00 0.00 0.00 74 1010.2
20260505212719 5 300 3.2 6.4 0.00 0.00 0.00 73 1010.0
20260505212217 5 300 3.2 6.4 0.00 0.00 0.00 73 1010.1
20260505211718 5 300 1.6 4.8 0.00 0.00 0.00 72 1010.1
20260505211216 5 300 1.6 4.8 0.00 0.00 0.00 71 1010.1
20260505210716 6 300 0.0 4.8 0.00 0.00 0.00 72 1009.9
20260505210216 5 300 0.0 0.0 0.00 0.00 0.00 72 1010.0
20260505205940 5 300 0.0 0.0 0.00 0.00 0.00 71 1009.9
20260505205213 5 300 0.0 0.0 0.00 0.00 0.00 70 1009.8
20260505204712 5 300 0.0 3.2 0.00 0.00 0.00 70 1009.8
20260505204213 5 300 0.0 3.2 0.00 0.00 0.00 71 1009.8
20260505203714 5 300 1.6 3.2 0.00 0.00 0.00 70 1009.6
20260505203212 5 300 1.6 3.2 0.00 0.00 0.00 69 1009.6
20260505202713 6 300 3.2 4.8 0.00 0.00 0.00 68 1009.6
20260505202213 6 300 3.2 6.4 0.00 0.00 0.00 68 1009.5
20260505201713 6 300 4.8 6.4 0.00 0.00 0.00 67 1009.3
20260505201211 6 300 4.8 6.4 0.00 0.00 0.00 67 1009.3
20260505200711 6 307 3.2 4.8 0.00 0.00 0.00 66 1009.1
20260505200212 6 307 3.2 4.8 0.00 0.00 0.00 66 1009.1
20260505195929 6 307 1.6 4.8 0.00 0.00 0.00 65 1009.1
20260505195212 6 307 3.2 6.4 0.00 0.00 0.00 67 1009.1
20260505194711 6 307 4.8 8.0 0.00 0.00 0.00 67 1009.0
20260505194211 6 307 4.8 8.0 0.00 0.00 0.00 66 1009.1
20260505193710 6 307 4.8 11.3 0.00 0.00 0.00 65 1009.1
20260505193649 6 304 4.8 11.3 0.00 0.00 0.00 65 1009.0
20260505192708 6 306 4.8 8.0 0.00 0.00 0.00 65 1009.1
20260505192209 7 306 3.2 6.4 0.00 0.00 0.00 66 1009.1
20260505191708 7 306 3.2 6.4 0.00 0.00 0.00 64 1009.0
20260505191645 7 306 3.2 4.8 0.00 0.00 0.00 65 1008.9
20260505190707 7 306 3.2 6.4 0.00 0.00 0.00 65 1009.1
20260505190218 7 306 4.8 11.3 0.00 0.00 0.00 65 1009.1
20260505185703 7 304 4.8 11.3 0.00 0.00 0.00 64 1009.1
20260505185204 7 309 6.4 8.0 0.00 0.00 0.00 63 1009.1
20260505184920 7 306 6.4 12.9 0.00 0.00 0.00 63 1009.0
20260505184201 8 306 9.7 17.7 0.00 0.00 0.00 62 1009.1
20260505184146 8 321 9.7 17.7 0.00 0.00 0.00 62 1008.9
20260505183201 8 305 8.0 16.1 0.00 0.00 0.00 61 1009.1
20260505182925 8 298 11.3 19.3 0.00 0.00 0.00 61 1008.9
20260505182152 8 337 9.7 19.3 0.00 0.00 0.00 61 1008.9
20260505181646 8 304 11.3 19.3 0.00 0.00 0.00 61 1008.9
20260505181142 8 274 12.9 20.9 0.00 0.00 0.00 60 1008.8
20260505180635 8 317 14.5 27.4 0.00 0.00 0.00 59 1008.7
20260505180129 9 331 16.1 27.4 0.00 0.00 0.00 58 1008.6
20260505175622 9 311 16.1 30.6 0.00 0.00 0.00 59 1008.5
20260505175118 9 317 16.1 30.6 0.00 0.00 0.00 58 1008.6
20260505174611 9 315 14.5 24.1 0.00 0.00 0.00 59 1008.5